DW8102 Weather Reports


Display with metric or nautical units.
time (UTC)temp
F
wind
direction
speed
MPH
gust
MPH
rain 1hr
in
rain 24hr
in
rain mn
in
humidity
%
barometer
mb
20260901201540 57 243 0.0 0.0 0.00 0.00 0.00 83 1008.1
20260901200100 58 243 0.0 0.0 0.00 0.00 0.00 83 1008.1
20260901194546 58 250 0.0 0.0 0.00 0.00 0.00 81 1008.0
20260901191555 59 277 0.0 0.0 0.00 0.00 0.00 78 1008.0
20260901190031 58 277 0.0 0.0 0.00 0.00 0.00 79 1008.0
20260901184532 59 277 0.0 0.0 0.00 0.00 0.00 79 1007.9
20260901181525 61 277 0.0 0.0 0.00 0.00 0.00 77 1007.8
20260901180019 63 277 0.0 0.0 0.00 0.00 0.00 73 1007.7
20260901174515 66 276 0.0 0.0 0.00 0.00 0.00 68 1007.6
20260901171514 72 277 0.0 0.0 0.00 0.00 0.00 60 1007.5
20260901170012 75 277 0.0 0.0 0.00 0.00 0.00 58 1007.4
20260901164509 74 277 0.0 0.0 0.00 0.00 0.00 59 1007.3
20260901161504 72 274 0.0 1.0 0.00 0.00 0.00 57 1007.4
20260901160116 71 315 0.0 1.0 0.00 0.00 0.00 57 1007.4
20260901154559 71 309 0.0 0.0 0.00 0.00 0.00 59 1007.3
20260901151559 70 318 0.0 1.0 0.00 0.00 0.00 61 1007.3
20260901150110 70 316 0.0 1.0 0.00 0.00 0.00 68 1007.5
20260901144600 71 320 0.0 1.0 0.00 0.00 0.00 64 1007.5
20260901143156 71 322 0.0 1.0 0.00 0.00 0.00 68 1007.5
20260901141557 70 320 0.0 1.0 0.00 0.00 0.00 69 1007.6
20260901140128 70 290 0.0 0.0 0.00 0.00 0.00 68 1007.6
20260901134549 70 316 0.0 1.0 0.00 0.00 0.00 69 1007.6
20260901133148 69 229 0.0 2.0 0.00 0.00 0.00 70 1007.8
20260901131547 69 224 0.0 1.0 0.00 0.00 0.00 71 1007.7
20260901130045 68 295 0.0 1.0 0.00 0.00 0.00 72 1007.7
20260901124544 69 316 0.0 1.0 0.00 0.00 0.00 72 1007.7
20260901123143 68 259 0.0 1.0 0.00 0.00 0.00 73 1007.7
20260901121540 67 316 0.0 1.0 0.00 0.00 0.00 75 1007.6
20260901120039 66 322 0.0 3.0 0.00 0.00 0.00 76 1007.6
20260901114537 66 322 0.0 1.0 0.00 0.00 0.00 78 1007.7
20260901113138 67 307 0.0 1.0 0.00 0.00 0.00 78 1007.7
20260901111532 66 309 0.0 1.0 0.00 0.00 0.00 78 1007.7
20260901110031 66 290 1.0 2.0 0.00 0.00 0.00 80 1007.6
20260901104529 65 323 0.0 3.0 0.00 0.00 0.00 80 1007.6
20260901103128 65 341 1.0 2.0 0.00 0.00 0.00 82 1007.6
20260901101550 65 315 0.0 2.0 0.00 0.00 0.00 83 1007.5
20260901100027 65 312 0.0 1.0 0.00 0.00 0.00 80 1007.5
20260901094535 64 259 0.0 1.0 0.00 0.00 0.00 81 1007.5
20260901093124 64 247 0.0 0.0 0.00 0.00 0.00 81 1007.4
20260901091529 64 15 0.0 1.0 0.00 0.00 0.00 82 1007.3
20260901090020 63 269 0.0 1.0 0.00 0.00 0.00 82 1007.3
20260901084533 63 351 0.0 1.0 0.00 0.00 0.00 83 1007.2
20260901083119 63 348 0.0 1.0 0.00 0.00 0.00 84 1007.2
20260901081521 63 353 0.0 1.0 0.00 0.00 0.00 84 1007.1
20260901080052 62 346 0.0 0.0 0.00 0.00 0.00 85 1007.0
20260901074521 62 8 0.0 0.0 0.00 0.00 0.00 87 1006.9
20260901073120 61 347 0.0 1.0 0.00 0.00 0.00 88 1006.8
20260901071514 60 346 0.0 1.0 0.00 0.00 0.00 89 1006.8
20260901070012 60 326 0.0 1.0 0.00 0.00 0.00 90 1006.6
20260901064514 59 290 0.0 1.0 0.00 0.00 0.00 91 1006.6
20260901063113 59 316 0.0 1.0 0.00 0.00 0.00 92 1006.6
20260901061515 58 284 0.0 2.0 0.00 0.00 0.00 94 1006.5
20260901060011 58 285 0.0 1.0 0.00 0.00 0.00 95 1006.4
20260901054510 57 249 0.0 1.0 0.00 0.00 0.00 96 1006.4
20260901051511 56 139 0.0 0.0 0.00 0.00 0.00 95 1006.2
20260901050010 55 140 0.0 0.0 0.00 0.00 0.00 96 1006.3
20260901044507 0 0.0 0.0 0.00 0.00 0.00 1006.3
20260901043103 0 0.0 0.0 0.00 0.00 0.00 1006.3
20260901041559 0 0.0 0.0 0.00 0.00 0.00 1006.3
20260901034550 0 0.0 0.0 0.00 0.00 0.00 1006.4
20260901033047 0 0.0 0.0 0.00 0.00 0.00 1006.2
20260901031544 0 0.0 0.0 0.00 0.00 0.00 1006.1
20260901030041 56 139 0.0 0.0 0.00 0.00 0.00 92 1006.2
20260901024548 56 140 0.0 0.0 0.00 0.00 0.00 93 1006.2
20260901023047 56 139 0.0 0.0 0.00 0.00 0.00 93 1006.1
20260901021555 56 136 0.0 0.0 0.00 0.06 0.00 92 1006.1
20260901020039 56 136 0.0 0.0 0.00 0.06 0.00 92 1006.0
20260901014538 56 136 0.0 0.0 0.00 0.06 0.00 92 1006.1
20260901013136 57 139 0.0 0.0 0.00 0.06 0.00 92 1006.0
20260901011535 56 140 0.0 0.0 0.00 0.06 0.00 91 1006.1
20260901010037 57 139 0.0 0.0 0.00 0.06 0.00 90 1006.2
20260901004531 57 140 0.0 0.0 0.00 0.06 0.00 89 1006.2
20260901003130 57 140 0.0 0.0 0.00 0.06 0.00 89 1006.2
20260901001532 57 139 0.0 0.0 0.00 0.06 0.00 89 1006.2
20260901000028 57 140 0.0 0.0 0.00 0.06 0.00 89 1006.2
20260831234532 57 139 0.0 0.0 0.00 0.06 0.00 89 1006.3
20260831233026 58 140 0.0 0.0 0.00 0.06 0.00 88 1006.2
20260831231536 57 139 0.0 0.0 0.00 0.06 0.00 88 1006.2
20260831230029 58 143 0.0 0.0 0.00 0.06 0.00 87 1006.2
20260831224544 59 143 0.0 0.0 0.00 0.06 0.00 86 1006.2
20260831223024 59 142 0.0 0.0 0.00 0.06 0.00 86 1006.2
20260831221521 59 142 0.0 0.0 0.00 0.07 0.00 85 1006.3
20260831220021 59 143 0.0 0.0 0.00 0.07 0.00 86 1006.3
20260831214520 58 212 0.0 0.0 0.00 0.07 0.00 86 1006.2
20260831213021 59 212 0.0 0.0 0.00 0.07 0.00 85 1006.1
20260831211518 59 212 0.0 0.0 0.00 0.07 0.00 85 1006.1
20260831210018 59 212 0.0 0.0 0.00 0.07 0.00 87 1006.1
20260831204518 58 212 0.0 0.0 0.00 0.07 0.00 88 1006.0
20260831203028 58 212 0.0 0.0 0.00 0.07 0.00 88 1006.0